Weather History for KBKB - June, 2013

Change the Weather History Date:

Friday, June 7, 2013

  Actual Average (KPOE) Record (KPOE)
Temperature  
Mean Temperature 77 °F -  
Max Temperature 86 °F 85 °F 97 °F (2011)
Min Temperature 68 °F 68 °F 59 °F (1998)
Cooling Degree Days 12    
Growing Degree Days 27 (Base 50)    
Moisture  
Dew Point 66 °F    
Average Humidity 77    
Maximum Humidity 94    
Minimum Humidity 49    
Precipitation  
Precipitation 0.00 in - - ()
Sea Level Pressure  
Sea Level Pressure 29.91 in    
Wind  
Wind Speed 1 mph (NNE)    
Max Wind Speed 5 mph    
Max Gust Speed -    
Visibility 9 miles    
Events      
Averages and records for this station are not official NWS values.
T = Trace of Precipitation, MM = Missing Value Source: NWS Daily Summary

Daily Weather History Graph

Daily Weather History Graph

Search for Another Location

Airport or City:

Trip Planner

Search our weather history database for the weather conditions in past years. The results will help you decide how hot, cold, wet, or windy it might be!

Date:

Astronomy

Jun. 07, 2013 Rise Set
Actual Time 6:07 AM CDT 8:13 PM CDT
Civil Twilight 5:39 AM CDT 8:41 PM CDT
Nautical Twilight 5:06 AM CDT 9:15 PM CDT
Astronomical Twilight 4:30 AM CDT 9:51 PM CDT
Moon 5:26 AM CDT (6/7) 7:31 PM CDT (6/7)
Length of Visible Light 15h 01m
Length of Day
14h 06m
Waning Crescent, 1% of the Moon is Illuminated
Jun 7
Waning Crescent
Jun 8
New
Jun 16
First Quarter
Jun 23
Full
Jun 29
Last Quarter

Hourly Weather History & Observations

Time (CDT) Temp. Heat Index Dew Point Humidity Pressure Visibility Wind Dir Wind Speed Gust Speed Precip Events Conditions
12:13 AM 71.6 °F - 68.0 °F 88% 29.85 in 10.0 mi Calm Calm - N/A   Overcast
12:31 AM 69.8 °F - 68.0 °F 94% 29.84 in 7.0 mi Calm Calm - N/A   Overcast
12:54 AM 70.0 °F - 66.9 °F 90% 29.91 in 8.0 mi Calm Calm - N/A   Partly Cloudy
1:13 AM 69.8 °F - 66.2 °F 88% 29.83 in 5.0 mi Calm Calm - N/A   Partly Cloudy
1:54 AM 70.0 °F - 66.9 °F 90% 29.91 in 10.0 mi Calm Calm - N/A   Partly Cloudy
2:15 AM 69.8 °F - 66.2 °F 88% 29.83 in 9.0 mi Calm Calm - N/A   Partly Cloudy
2:54 AM 68.0 °F - 66.0 °F 93% 29.90 in 4.0 mi Calm Calm - N/A   Mostly Cloudy
3:54 AM 69.1 °F - 66.9 °F 93% 29.91 in 10.0 mi Calm Calm - N/A   Overcast
4:19 AM 69.8 °F - 66.2 °F 88% 29.83 in 10.0 mi Calm Calm - N/A   Overcast
4:54 AM 69.1 °F - 66.0 °F 90% 29.91 in 10.0 mi Variable 4.6 mph - N/A   Overcast
5:54 AM 69.1 °F - 66.0 °F 90% 29.93 in 9.0 mi Calm Calm - N/A   Overcast
6:29 AM 69.8 °F - 66.2 °F 88% 29.86 in 10.0 mi Calm Calm - N/A   Overcast
6:54 AM 69.1 °F - 66.0 °F 90% 29.95 in 9.0 mi Calm Calm - N/A   Overcast
7:15 AM 69.8 °F - 66.2 °F 88% 29.87 in 10.0 mi Calm Calm - N/A   Overcast
7:45 AM 69.8 °F - 66.2 °F 88% 29.87 in 10.0 mi Variable 3.5 mph - N/A   Overcast
7:54 AM 70.0 °F - 66.0 °F 87% 29.95 in 9.0 mi Calm Calm - N/A   Overcast
8:54 AM 72.0 °F - 66.0 °F 81% 29.97 in 10.0 mi Calm Calm - N/A   Overcast
9:39 AM 73.4 °F - 66.2 °F 78% 29.89 in 10.0 mi Calm Calm - N/A   Overcast
9:54 AM 73.0 °F - 66.0 °F 79% 29.97 in 10.0 mi Calm Calm - N/A   Overcast
10:39 AM 75.2 °F - 66.2 °F 73% 29.90 in 10.0 mi NNE 4.6 mph - N/A   Overcast
10:54 AM 77.0 °F - 66.9 °F 71% 29.97 in 10.0 mi Variable 3.5 mph - N/A   Mostly Cloudy
11:37 AM 78.8 °F - 66.2 °F 65% 29.89 in 10.0 mi Calm Calm - N/A   Mostly Cloudy
11:45 AM 78.8 °F - 66.2 °F 65% 29.90 in 10.0 mi Calm Calm - N/A   Mostly Cloudy
11:52 AM 78.8 °F - 64.4 °F 61% 29.90 in 10.0 mi Calm Calm - N/A   Mostly Cloudy
11:54 AM 78.1 °F - 64.9 °F 64% 29.97 in 10.0 mi Variable 3.5 mph - N/A   Mostly Cloudy
12:54 PM 81.0 °F 83.0 °F 66.0 °F 60% 29.97 in 10.0 mi Calm Calm - N/A   Scattered Clouds
1:54 PM 84.0 °F 86.3 °F 66.0 °F 55% 29.94 in 10.0 mi Calm Calm - N/A   Scattered Clouds
2:54 PM 86.0 °F 87.6 °F 64.9 °F 49% 29.92 in 10.0 mi Calm Calm - N/A   Mostly Cloudy
3:54 PM 82.9 °F 84.6 °F 64.9 °F 54% 29.92 in 10.0 mi Calm Calm - N/A   Mostly Cloudy
4:54 PM 86.0 °F 87.6 °F 64.9 °F 49% 29.91 in 10.0 mi Calm Calm - N/A   Clear
5:54 PM 84.0 °F 85.4 °F 64.0 °F 51% 29.91 in 10.0 mi Variable 3.5 mph - N/A   Partly Cloudy
6:54 PM 82.0 °F 83.4 °F 64.0 °F 54% 29.91 in 10.0 mi Variable 3.5 mph - N/A   Clear
7:54 PM 77.0 °F - 66.9 °F 71% 29.92 in 10.0 mi Calm Calm - N/A   Scattered Clouds
8:54 PM 73.0 °F - 66.9 °F 81% 29.93 in 10.0 mi Calm Calm - N/A   Clear
9:54 PM 71.1 °F - 66.9 °F 87% 29.95 in 10.0 mi Calm Calm - N/A   Clear
10:54 PM 70.0 °F - 66.9 °F 90% 29.97 in 7.0 mi Calm Calm - N/A   Clear
11:54 PM 69.1 °F - 66.0 °F 90% 29.96 in 5.0 mi Calm Calm - N/A   Partly Cloudy